This is the latest recevied weather packets stored in our database for station/object W2GRK-15. If no packets are shown the sender has not sent any weather packets the latest 10 day(s).
| Time | Temp. | Humidity | Pressure | Rain* | Wind** | Luminosity | Snow |
|---|---|---|---|---|---|---|---|
| 1777555698 | 9.44° C | 99% | 1008.3 hPa | 0 mm | - | 89 W/m² | - |
| 1777555586 | 9.44° C | 99% | 1008.6 hPa | 0 mm | - | 92 W/m² | - |
| 1777555457 | 9.44° C | 99% | 1008.5 hPa | 0 mm | - | 83 W/m² | - |
| 1777555364 | 9.44° C | 99% | 1008.2 hPa | 0 mm | - | 80 W/m² | - |
| 1777554990 | 9.44° C | 99% | 1008.3 hPa | 0 mm | - | 79 W/m² | - |
| 1777554619 | 9.44° C | 99% | 1008.4 hPa | 0 mm | - | 73 W/m² | - |
| 1777554571 | 9.44° C | 99% | 1008.3 hPa | 0 mm | - | 73 W/m² | - |
| 1777554442 | 9.44° C | 99% | 1008.5 hPa | 0 mm | - | 70 W/m² | - |
| 1777553959 | 9.44° C | 99% | 1008.3 hPa | 0 mm | - | 53 W/m² | - |
| 1777553476 | 9.44° C | 99% | 1008.2 hPa | 0 mm | - | 68 W/m² | - |
| 1777553428 | 9.44° C | 99% | 1008.1 hPa | 0 mm | - | 71 W/m² | - |
| 1777552703 | 9.44° C | 99% | 1008.2 hPa | 0 mm | - | 97 W/m² | - |
| 1777552639 | 9.44° C | 99% | 1008.1 hPa | 0 mm | - | 102 W/m² | - |
| 1777552349 | 8.89° C | 99% | 1008.3 hPa | 0 mm | - | 106 W/m² | - |
| 1777552284 | 8.89° C | 99% | 1008.2 hPa | 0 mm | - | 107 W/m² | - |
| 1777552155 | 8.89° C | 99% | 1008.3 hPa | 0 mm | - | 99 W/m² | - |
| 1777551688 | 8.89° C | 99% | 1008.4 hPa | 0 mm | - | 67 W/m² | - |
| 1777550722 | 8.89° C | 99% | 1008.6 hPa | 0 mm | - | 36 W/m² | - |
| 1777550388 | 9.44° C | 99% | 1008.7 hPa | 0 mm | - | 38 W/m² | - |
| 1777550210 | 8.89° C | 99% | 1008.6 hPa | 0 mm | - | 35 W/m² | - |
| 1777550082 | 8.89° C | 99% | 1008.6 hPa | 0 mm | - | 34 W/m² | - |
| 1777549708 | 8.89° C | 99% | 1008.5 hPa | 0 mm | - | 26 W/m² | - |
| 1777549643 | 8.89° C | 99% | 1008.7 hPa | 0 mm | - | 21 W/m² | - |
| 1777549466 | 8.89° C | 99% | 1008.6 hPa | 0 mm | - | 16 W/m² | - |
| 1777549225 | 8.89° C | 99% | 1008.6 hPa | 0 mm | - | 23 W/m² | - |
* Rain latest hour (hover to see other rain measurements)
** Current wind speed in m/s (hover to see current wind gust speed)